<?xml version="1.0"?>
<gpx xmlns="http://www.topografix.com/GPX/1/1" xmlns:xsi="http://www.w3.org/2001/XMLSchema-instance" version="1.1" creator="GPX RubyGem 1.0.0 -- http://dougfales.github.io/gpx/" xsi:schemaLocation="http://www.topografix.com/GPX/1/1 http://www.topografix.com/GPX/1/1/gpx.xsd">
  <metadata>
    <name/>
    <time>2026-05-08T04:58:42+00:00</time>
    <bound minlat="90.0" minlon="180.0" maxlat="-90.0" maxlon="-180.0"/>
  </metadata>
  <trk>
    <name/>
    <trkseg>
      <trkpt lat="46.051935" lon="9.432015">
        <time>1970-01-01T00:00:00+00:00</time>
        <ele>984.0</ele>
      </trkpt>
      <trkpt lat="46.051934" lon="9.432071">
        <time>1970-01-01T00:00:00+00:00</time>
        <ele>984.0</ele>
      </trkpt>
      <trkpt lat="46.052005" lon="9.432079">
        <time>1970-01-01T00:00:00+00:00</time>
        <ele>988.0</ele>
      </trkpt>
      <trkpt lat="46.052002" lon="9.432229">
        <time>1970-01-01T00:00:00+00:00</time>
        <ele>987.0</ele>
      </trkpt>
      <trkpt lat="46.05203" lon="9.432406">
        <time>1970-01-01T00:00:00+00:00</time>
        <ele>986.0</ele>
      </trkpt>
      <trkpt lat="46.052069" lon="9.432485">
        <time>1970-01-01T00:00:00+00:00</time>
        <ele>986.0</ele>
      </trkpt>
      <trkpt lat="46.05225" lon="9.432691">
        <time>1970-01-01T00:00:00+00:00</time>
        <ele>986.0</ele>
      </trkpt>
      <trkpt lat="46.052398" lon="9.432705">
        <time>1970-01-01T00:00:00+00:00</time>
        <ele>992.0</ele>
      </trkpt>
      <trkpt lat="46.052607" lon="9.432614">
        <time>1970-01-01T00:00:00+00:00</time>
        <ele>1007.0</ele>
      </trkpt>
      <trkpt lat="46.052376" lon="9.432449">
        <time>1970-01-01T00:00:00+00:00</time>
        <ele>1003.0</ele>
      </trkpt>
      <trkpt lat="46.052325" lon="9.432197">
        <time>1970-01-01T00:00:00+00:00</time>
        <ele>1006.0</ele>
      </trkpt>
      <trkpt lat="46.05239" lon="9.432049">
        <time>1970-01-01T00:00:00+00:00</time>
        <ele>1014.0</ele>
      </trkpt>
      <trkpt lat="46.052476" lon="9.431946">
        <time>1970-01-01T00:00:00+00:00</time>
        <ele>1021.0</ele>
      </trkpt>
      <trkpt lat="46.052785" lon="9.431856">
        <time>1970-01-01T00:00:00+00:00</time>
        <ele>1035.0</ele>
      </trkpt>
      <trkpt lat="46.052773" lon="9.431802">
        <time>1970-01-01T00:00:00+00:00</time>
        <ele>1036.0</ele>
      </trkpt>
      <trkpt lat="46.052838" lon="9.431785">
        <time>1970-01-01T00:00:00+00:00</time>
        <ele>1039.0</ele>
      </trkpt>
      <trkpt lat="46.052905" lon="9.431663">
        <time>1970-01-01T00:00:00+00:00</time>
        <ele>1042.0</ele>
      </trkpt>
      <trkpt lat="46.052923" lon="9.431529">
        <time>1970-01-01T00:00:00+00:00</time>
        <ele>1043.0</ele>
      </trkpt>
      <trkpt lat="46.052926" lon="9.431249">
        <time>1970-01-01T00:00:00+00:00</time>
        <ele>1046.0</ele>
      </trkpt>
      <trkpt lat="46.052919" lon="9.431024">
        <time>1970-01-01T00:00:00+00:00</time>
        <ele>1047.0</ele>
      </trkpt>
      <trkpt lat="46.052952" lon="9.43102">
        <time>1970-01-01T00:00:00+00:00</time>
        <ele>1049.0</ele>
      </trkpt>
      <trkpt lat="46.052995" lon="9.430994">
        <time>1970-01-01T00:00:00+00:00</time>
        <ele>1052.0</ele>
      </trkpt>
      <trkpt lat="46.053042" lon="9.431007">
        <time>1970-01-01T00:00:00+00:00</time>
        <ele>1054.0</ele>
      </trkpt>
      <trkpt lat="46.053055" lon="9.430967">
        <time>1970-01-01T00:00:00+00:00</time>
        <ele>1055.0</ele>
      </trkpt>
      <trkpt lat="46.053086" lon="9.430937">
        <time>1970-01-01T00:00:00+00:00</time>
        <ele>1057.0</ele>
      </trkpt>
      <trkpt lat="46.053103" lon="9.430865">
        <time>1970-01-01T00:00:00+00:00</time>
        <ele>1058.0</ele>
      </trkpt>
      <trkpt lat="46.05316" lon="9.43125">
        <time>1970-01-01T00:00:00+00:00</time>
        <ele>1058.0</ele>
      </trkpt>
      <trkpt lat="46.053388" lon="9.43172">
        <time>1970-01-01T00:00:00+00:00</time>
        <ele>1064.0</ele>
      </trkpt>
      <trkpt lat="46.053583" lon="9.432019">
        <time>1970-01-01T00:00:00+00:00</time>
        <ele>1072.0</ele>
      </trkpt>
      <trkpt lat="46.053774" lon="9.432417">
        <time>1970-01-01T00:00:00+00:00</time>
        <ele>1077.0</ele>
      </trkpt>
      <trkpt lat="46.053957" lon="9.432674">
        <time>1970-01-01T00:00:00+00:00</time>
        <ele>1087.0</ele>
      </trkpt>
      <trkpt lat="46.053983" lon="9.432732">
        <time>1970-01-01T00:00:00+00:00</time>
        <ele>1089.0</ele>
      </trkpt>
      <trkpt lat="46.054007" lon="9.432786">
        <time>1970-01-01T00:00:00+00:00</time>
        <ele>1090.0</ele>
      </trkpt>
      <trkpt lat="46.054085" lon="9.432993">
        <time>1970-01-01T00:00:00+00:00</time>
        <ele>1093.0</ele>
      </trkpt>
      <trkpt lat="46.054058" lon="9.432621">
        <time>1970-01-01T00:00:00+00:00</time>
        <ele>1096.0</ele>
      </trkpt>
      <trkpt lat="46.054057" lon="9.43262">
        <time>1970-01-01T00:00:00+00:00</time>
        <ele>1096.0</ele>
      </trkpt>
      <trkpt lat="46.054057" lon="9.43262">
        <time>1970-01-01T00:00:00+00:00</time>
        <ele>1096.0</ele>
      </trkpt>
      <trkpt lat="46.054058" lon="9.432621">
        <time>1970-01-01T00:00:00+00:00</time>
        <ele>1096.0</ele>
      </trkpt>
      <trkpt lat="46.054085" lon="9.432993">
        <time>1970-01-01T00:00:00+00:00</time>
        <ele>1093.0</ele>
      </trkpt>
      <trkpt lat="46.054007" lon="9.432786">
        <time>1970-01-01T00:00:00+00:00</time>
        <ele>1090.0</ele>
      </trkpt>
      <trkpt lat="46.053983" lon="9.432732">
        <time>1970-01-01T00:00:00+00:00</time>
        <ele>1089.0</ele>
      </trkpt>
      <trkpt lat="46.053957" lon="9.432674">
        <time>1970-01-01T00:00:00+00:00</time>
        <ele>1087.0</ele>
      </trkpt>
      <trkpt lat="46.053774" lon="9.432417">
        <time>1970-01-01T00:00:00+00:00</time>
        <ele>1077.0</ele>
      </trkpt>
      <trkpt lat="46.053583" lon="9.432019">
        <time>1970-01-01T00:00:00+00:00</time>
        <ele>1072.0</ele>
      </trkpt>
      <trkpt lat="46.053388" lon="9.43172">
        <time>1970-01-01T00:00:00+00:00</time>
        <ele>1064.0</ele>
      </trkpt>
      <trkpt lat="46.05316" lon="9.43125">
        <time>1970-01-01T00:00:00+00:00</time>
        <ele>1058.0</ele>
      </trkpt>
      <trkpt lat="46.053103" lon="9.430865">
        <time>1970-01-01T00:00:00+00:00</time>
        <ele>1058.0</ele>
      </trkpt>
      <trkpt lat="46.053086" lon="9.430937">
        <time>1970-01-01T00:00:00+00:00</time>
        <ele>1057.0</ele>
      </trkpt>
      <trkpt lat="46.053055" lon="9.430967">
        <time>1970-01-01T00:00:00+00:00</time>
        <ele>1055.0</ele>
      </trkpt>
      <trkpt lat="46.053042" lon="9.431007">
        <time>1970-01-01T00:00:00+00:00</time>
        <ele>1054.0</ele>
      </trkpt>
      <trkpt lat="46.052995" lon="9.430994">
        <time>1970-01-01T00:00:00+00:00</time>
        <ele>1052.0</ele>
      </trkpt>
      <trkpt lat="46.052952" lon="9.43102">
        <time>1970-01-01T00:00:00+00:00</time>
        <ele>1049.0</ele>
      </trkpt>
      <trkpt lat="46.052919" lon="9.431024">
        <time>1970-01-01T00:00:00+00:00</time>
        <ele>1047.0</ele>
      </trkpt>
      <trkpt lat="46.052926" lon="9.431249">
        <time>1970-01-01T00:00:00+00:00</time>
        <ele>1046.0</ele>
      </trkpt>
      <trkpt lat="46.052923" lon="9.431529">
        <time>1970-01-01T00:00:00+00:00</time>
        <ele>1043.0</ele>
      </trkpt>
      <trkpt lat="46.052905" lon="9.431663">
        <time>1970-01-01T00:00:00+00:00</time>
        <ele>1042.0</ele>
      </trkpt>
      <trkpt lat="46.052838" lon="9.431785">
        <time>1970-01-01T00:00:00+00:00</time>
        <ele>1039.0</ele>
      </trkpt>
      <trkpt lat="46.052773" lon="9.431802">
        <time>1970-01-01T00:00:00+00:00</time>
        <ele>1036.0</ele>
      </trkpt>
      <trkpt lat="46.052785" lon="9.431856">
        <time>1970-01-01T00:00:00+00:00</time>
        <ele>1035.0</ele>
      </trkpt>
      <trkpt lat="46.052476" lon="9.431946">
        <time>1970-01-01T00:00:00+00:00</time>
        <ele>1021.0</ele>
      </trkpt>
      <trkpt lat="46.05239" lon="9.432049">
        <time>1970-01-01T00:00:00+00:00</time>
        <ele>1014.0</ele>
      </trkpt>
      <trkpt lat="46.052325" lon="9.432197">
        <time>1970-01-01T00:00:00+00:00</time>
        <ele>1006.0</ele>
      </trkpt>
      <trkpt lat="46.052376" lon="9.432449">
        <time>1970-01-01T00:00:00+00:00</time>
        <ele>1003.0</ele>
      </trkpt>
      <trkpt lat="46.052607" lon="9.432614">
        <time>1970-01-01T00:00:00+00:00</time>
        <ele>1007.0</ele>
      </trkpt>
      <trkpt lat="46.052398" lon="9.432705">
        <time>1970-01-01T00:00:00+00:00</time>
        <ele>992.0</ele>
      </trkpt>
      <trkpt lat="46.05225" lon="9.432691">
        <time>1970-01-01T00:00:00+00:00</time>
        <ele>986.0</ele>
      </trkpt>
      <trkpt lat="46.052069" lon="9.432485">
        <time>1970-01-01T00:00:00+00:00</time>
        <ele>986.0</ele>
      </trkpt>
      <trkpt lat="46.05203" lon="9.432406">
        <time>1970-01-01T00:00:00+00:00</time>
        <ele>986.0</ele>
      </trkpt>
      <trkpt lat="46.052002" lon="9.432229">
        <time>1970-01-01T00:00:00+00:00</time>
        <ele>987.0</ele>
      </trkpt>
      <trkpt lat="46.052005" lon="9.432079">
        <time>1970-01-01T00:00:00+00:00</time>
        <ele>988.0</ele>
      </trkpt>
      <trkpt lat="46.051934" lon="9.432071">
        <time>1970-01-01T00:00:00+00:00</time>
        <ele>984.0</ele>
      </trkpt>
      <trkpt lat="46.051935" lon="9.432015">
        <time>1970-01-01T00:00:00+00:00</time>
        <ele>984.0</ele>
      </trkpt>
    </trkseg>
  </trk>
</gpx>
